2022-145A (54223 NORAD) Tracking and Keplerian Element Data

This shows tracking and keplerian element data for the satellite.

Feedback or suggestion? Click here.




ElementValue
Catalog54223
Name2022-145A
Epoch Orbit38
Epoch Day325.1924016
Epoch Year2022
RAAN91.3453
Inclination63.8206
Eccentricity0.6987541
Argument of Perigee269.8856
Mean Anonmoly17.2598
Mean Motion2.01421028
Decay Rate-2.75E-06
L11 54223U 22145A 22325.19240160 -.00000275 00000+0 00000+0 0 9990
L22 54223 63.8206 91.3453 6987541 269.8856 17.2598 2.01421028 385



Live tracking and technical data element details for 2022-145A (NORAD 54223). 2022-145A can be tracked NOW for your location showing map with azimuth and elevation plus other details from your city location.







IsCatalogInMostPopularTable: catalog: 54223, numindb: 7
Update: records affected: 1



GetName: 54223 2022-145A

Hit Count: updated at: Sun, 04 Dec 2022 21:26:11 GMT